Home > Weather > Leoben > Past weeks

Flag for Austria Weather for the Past 2 Weeks in Leoben, Styria, Austria

Now
43 °F

Passing clouds.


Feels Like: 36 °F
Forecast: 29 / 50 °F
Wind: 12 mph from Southwest

Location: Zeltweg

Current Time: Feb 7, 2016 at 11:02:14 PM

Latest Report: Feb 7, 2016 at 9:50 PM


Visibility: 12 mi

Pressure: 29.89 "Hg (27.98 "Hg at 540m altitude)

Humidity: 66%

Dew point: 32 °F

Location of LeobenLocation

Historic Weather in Leoben — Graph

°F

Leoben Temperature Yesterday

Maximum temperature yesterday: 46 °F (at 3:20 PM)
Minimum temperature yesterday: 25 °F (at 4:50 AM)
Average temperature yesterday: 36 °F

High & Low Weather Summary for the Past Weeks

 TemperatureHumidityPressure
High57 °F (Feb 1, 1:50 PM)100% (Jan 26, 4:50 AM)30.51 "Hg (Jan 26, 4:50 AM)
Low16 °F (Jan 24, 4:50 AM)45% (Feb 4, 11:20 AM)29.86 "Hg (Jan 31, 3:50 AM)
Average36 °F80%30.21 "Hg
* Reported Jan 23 8:50 PM — Feb 7 8:50 PM, Leoben, Weather by CustomWeather, © 2016

Note: Actual official high and low records may vary slightly from our data, if they occured in-between our weather recording intervals... More about our weather records

Advertising

Leoben Weather History for the Previous 24 Hours

 ConditionsComfort  
Time TempWeatherWind HumidityBarometerVisibility
8:50 PM
Sun, Feb 7
39 °FPassing clouds.5 mph75%29.89 "Hg12 mi
7:50 PM36 °FPassing clouds.6 mph87%29.89 "Hg19 mi
6:50 PM39 °FPassing clouds.8 mph75%29.89 "Hg19 mi
5:50 PM43 °FPassing clouds.6 mph66%29.86 "Hg19 mi
4:50 PM45 °FPartly sunny.10 mph61%29.86 "Hg19 mi
4:20 PM46 °FPartly sunny.12 mph57%29.86 "Hg19 mi
3:50 PM46 °FPartly sunny.9 mph57%29.86 "Hg25 mi
3:20 PM46 °FPartly sunny.9 mph57%29.86 "Hg25 mi
2:50 PM46 °FPartly sunny.6 mph57%29.86 "Hg25 mi
2:20 PM46 °FPartly sunny.5 mph57%29.86 "Hg19 mi
1:50 PM48 °FPartly sunny.7 mph54%29.86 "Hg25 mi
1:20 PM48 °FPartly sunny.6 mph54%29.86 "Hg25 mi
12:50 PM48 °FPartly sunny.8 mph50%29.89 "Hg25 mi
12:20 PM48 °FBroken clouds.6 mph54%29.89 "Hg25 mi
11:50 AM48 °FBroken clouds.5 mph50%29.89 "Hg25 mi
11:20 AM48 °FBroken clouds.7 mph50%29.89 "Hg25 mi
10:50 AM46 °FBroken clouds.12 mph53%29.89 "Hg19 mi
10:20 AM45 °FBroken clouds.6 mph57%29.92 "Hg19 mi
9:50 AM46 °FBroken clouds.6 mph53%29.92 "Hg19 mi
9:20 AM41 °FBroken clouds.7 mph66%29.92 "Hg19 mi
8:50 AM39 °FBroken clouds.9 mph70%29.92 "Hg19 mi
7:50 AM45 °FPartly sunny.8 mph53%29.95 "Hg12 mi
6:50 AM41 °FPassing clouds.5 mph61%29.92 "Hg9 mi
5:50 AM41 °FPassing clouds.3 mph57%29.92 "Hg9 mi
4:50 AM39 °FPassing clouds.8 mph65%29.95 "Hg9 mi
3:50 AM37 °FPassing clouds.12 mph70%29.95 "Hg9 mi
Weather by CustomWeather, © 2016

See weather overviewHow to use our weather pages